Index of /20260509/WXO-DD/model_caps/3km/00/036
Name Last modified Size Description
Parent Directory -
20260509T00Z_MSC_CAPS_AbsoluteVorticity_IsbL-0250_RLatLon0.03_PT036H.grib2 2026-05-09 06:16 1.4M
20260509T00Z_MSC_CAPS_AbsoluteVorticity_IsbL-0500_RLatLon0.03_PT036H.grib2 2026-05-09 06:16 1.1M
20260509T00Z_MSC_CAPS_AbsoluteVorticity_IsbL-0700_RLatLon0.03_PT036H.grib2 2026-05-09 06:16 1.0M
20260509T00Z_MSC_CAPS_AbsoluteVorticity_IsbL-0850_RLatLon0.03_PT036H.grib2 2026-05-09 06:16 1.2M
20260509T00Z_MSC_CAPS_AbsoluteVorticity_IsbL-1000_RLatLon0.03_PT036H.grib2 2026-05-09 06:16 1.8M
20260509T00Z_MSC_CAPS_AirDensity_AGL-120m_RLatLon0.03_PT036H.grib2 2026-05-09 06:16 1.4M
20260509T00Z_MSC_CAPS_AirDensity_AGL-40m_RLatLon0.03_PT036H.grib2 2026-05-09 06:16 1.5M
20260509T00Z_MSC_CAPS_AirDensity_AGL-80m_RLatLon0.03_PT036H.grib2 2026-05-09 06:16 1.4M
20260509T00Z_MSC_CAPS_AirTemp_AGL-120m_RLatLon0.03_PT036H.grib2 2026-05-09 06:16 1.8M
20260509T00Z_MSC_CAPS_AirTemp_AGL-2m_RLatLon0.03_PT036H.grib2 2026-05-09 06:16 2.1M
20260509T00Z_MSC_CAPS_AirTemp_AGL-40m_RLatLon0.03_PT036H.grib2 2026-05-09 06:16 1.8M
20260509T00Z_MSC_CAPS_AirTemp_AGL-80m_RLatLon0.03_PT036H.grib2 2026-05-09 06:16 1.8M
20260509T00Z_MSC_CAPS_AirTemp_IsbL-0050_RLatLon0.03_PT036H.grib2 2026-05-09 06:16 692K
20260509T00Z_MSC_CAPS_AirTemp_IsbL-0100_RLatLon0.03_PT036H.grib2 2026-05-09 06:16 788K
20260509T00Z_MSC_CAPS_AirTemp_IsbL-0150_RLatLon0.03_PT036H.grib2 2026-05-09 06:16 743K
20260509T00Z_MSC_CAPS_AirTemp_IsbL-0175_RLatLon0.03_PT036H.grib2 2026-05-09 06:16 766K
20260509T00Z_MSC_CAPS_AirTemp_IsbL-0200_RLatLon0.03_PT036H.grib2 2026-05-09 06:16 787K
20260509T00Z_MSC_CAPS_AirTemp_IsbL-0225_RLatLon0.03_PT036H.grib2 2026-05-09 06:16 796K
20260509T00Z_MSC_CAPS_AirTemp_IsbL-0250_RLatLon0.03_PT036H.grib2 2026-05-09 06:16 792K
20260509T00Z_MSC_CAPS_AirTemp_IsbL-0275_RLatLon0.03_PT036H.grib2 2026-05-09 06:16 1.0M
20260509T00Z_MSC_CAPS_AirTemp_IsbL-0300_RLatLon0.03_PT036H.grib2 2026-05-09 06:16 1.0M
20260509T00Z_MSC_CAPS_AirTemp_IsbL-0350_RLatLon0.03_PT036H.grib2 2026-05-09 06:16 746K
20260509T00Z_MSC_CAPS_AirTemp_IsbL-0400_RLatLon0.03_PT036H.grib2 2026-05-09 06:16 752K
20260509T00Z_MSC_CAPS_AirTemp_IsbL-0450_RLatLon0.03_PT036H.grib2 2026-05-09 06:16 772K
20260509T00Z_MSC_CAPS_AirTemp_IsbL-0500_RLatLon0.03_PT036H.grib2 2026-05-09 06:16 788K
20260509T00Z_MSC_CAPS_AirTemp_IsbL-0550_RLatLon0.03_PT036H.grib2 2026-05-09 06:16 801K
20260509T00Z_MSC_CAPS_AirTemp_IsbL-0600_RLatLon0.03_PT036H.grib2 2026-05-09 06:16 816K
20260509T00Z_MSC_CAPS_AirTemp_IsbL-0650_RLatLon0.03_PT036H.grib2 2026-05-09 06:16 839K
20260509T00Z_MSC_CAPS_AirTemp_IsbL-0700_RLatLon0.03_PT036H.grib2 2026-05-09 06:16 866K
20260509T00Z_MSC_CAPS_AirTemp_IsbL-0750_RLatLon0.03_PT036H.grib2 2026-05-09 06:16 900K
20260509T00Z_MSC_CAPS_AirTemp_IsbL-0800_RLatLon0.03_PT036H.grib2 2026-05-09 06:16 935K
20260509T00Z_MSC_CAPS_AirTemp_IsbL-0850_RLatLon0.03_PT036H.grib2 2026-05-09 06:16 1.1M
20260509T00Z_MSC_CAPS_AirTemp_IsbL-0875_RLatLon0.03_PT036H.grib2 2026-05-09 06:16 1.1M
20260509T00Z_MSC_CAPS_AirTemp_IsbL-0900_RLatLon0.03_PT036H.grib2 2026-05-09 06:16 1.1M
20260509T00Z_MSC_CAPS_AirTemp_IsbL-0925_RLatLon0.03_PT036H.grib2 2026-05-09 06:16 1.1M
20260509T00Z_MSC_CAPS_AirTemp_IsbL-0950_RLatLon0.03_PT036H.grib2 2026-05-09 06:16 1.1M
20260509T00Z_MSC_CAPS_AirTemp_IsbL-0970_RLatLon0.03_PT036H.grib2 2026-05-09 06:16 1.1M
20260509T00Z_MSC_CAPS_AirTemp_IsbL-0985_RLatLon0.03_PT036H.grib2 2026-05-09 06:16 1.1M
20260509T00Z_MSC_CAPS_AirTemp_IsbL-1000_RLatLon0.03_PT036H.grib2 2026-05-09 06:16 1.1M
20260509T00Z_MSC_CAPS_AirTemp_IsbL-1015_RLatLon0.03_PT036H.grib2 2026-05-09 06:16 1.1M
20260509T00Z_MSC_CAPS_Albedo_Sfc_RLatLon0.03_PT036H.grib2 2026-05-09 06:16 2.7M
20260509T00Z_MSC_CAPS_CAPE_Sfc_RLatLon0.03_PT036H.grib2 2026-05-09 06:16 181K
20260509T00Z_MSC_CAPS_CloudWater_EAtm_RLatLon0.03_PT036H.grib2 2026-05-09 06:16 1.5M
20260509T00Z_MSC_CAPS_ConvectivePrecip-Accum_Sfc_RLatLon0.03_PT036H.grib2 2026-05-09 06:16 4.6M
20260509T00Z_MSC_CAPS_DewPointDepression_AGL-120m_RLatLon0.03_PT036H.grib2 2026-05-09 06:16 2.0M
20260509T00Z_MSC_CAPS_DewPointDepression_AGL-2m_RLatLon0.03_PT036H.grib2 2026-05-09 06:16 2.1M
20260509T00Z_MSC_CAPS_DewPointDepression_AGL-40m_RLatLon0.03_PT036H.grib2 2026-05-09 06:16 2.1M
20260509T00Z_MSC_CAPS_DewPointDepression_AGL-80m_RLatLon0.03_PT036H.grib2 2026-05-09 06:16 2.1M
20260509T00Z_MSC_CAPS_DewPointDepression_IsbL-0050_RLatLon0.03_PT036H.grib2 2026-05-09 06:16 193
20260509T00Z_MSC_CAPS_DewPointDepression_IsbL-0100_RLatLon0.03_PT036H.grib2 2026-05-09 06:16 47K
20260509T00Z_MSC_CAPS_DewPointDepression_IsbL-0150_RLatLon0.03_PT036H.grib2 2026-05-09 06:16 68K
20260509T00Z_MSC_CAPS_DewPointDepression_IsbL-0175_RLatLon0.03_PT036H.grib2 2026-05-09 06:16 135K
20260509T00Z_MSC_CAPS_DewPointDepression_IsbL-0200_RLatLon0.03_PT036H.grib2 2026-05-09 06:16 335K
20260509T00Z_MSC_CAPS_DewPointDepression_IsbL-0225_RLatLon0.03_PT036H.grib2 2026-05-09 06:16 660K
20260509T00Z_MSC_CAPS_DewPointDepression_IsbL-0250_RLatLon0.03_PT036H.grib2 2026-05-09 06:16 895K
20260509T00Z_MSC_CAPS_DewPointDepression_IsbL-0275_RLatLon0.03_PT036H.grib2 2026-05-09 06:16 1.0M
20260509T00Z_MSC_CAPS_DewPointDepression_IsbL-0300_RLatLon0.03_PT036H.grib2 2026-05-09 06:16 1.0M
20260509T00Z_MSC_CAPS_DewPointDepression_IsbL-0350_RLatLon0.03_PT036H.grib2 2026-05-09 06:16 1.1M
20260509T00Z_MSC_CAPS_DewPointDepression_IsbL-0400_RLatLon0.03_PT036H.grib2 2026-05-09 06:16 1.1M
20260509T00Z_MSC_CAPS_DewPointDepression_IsbL-0450_RLatLon0.03_PT036H.grib2 2026-05-09 06:16 1.2M
20260509T00Z_MSC_CAPS_DewPointDepression_IsbL-0500_RLatLon0.03_PT036H.grib2 2026-05-09 06:16 1.2M
20260509T00Z_MSC_CAPS_DewPointDepression_IsbL-0550_RLatLon0.03_PT036H.grib2 2026-05-09 06:16 1.2M
20260509T00Z_MSC_CAPS_DewPointDepression_IsbL-0600_RLatLon0.03_PT036H.grib2 2026-05-09 06:16 1.3M
20260509T00Z_MSC_CAPS_DewPointDepression_IsbL-0650_RLatLon0.03_PT036H.grib2 2026-05-09 06:16 1.3M
20260509T00Z_MSC_CAPS_DewPointDepression_IsbL-0700_RLatLon0.03_PT036H.grib2 2026-05-09 06:16 1.3M
20260509T00Z_MSC_CAPS_DewPointDepression_IsbL-0750_RLatLon0.03_PT036H.grib2 2026-05-09 06:16 1.3M
20260509T00Z_MSC_CAPS_DewPointDepression_IsbL-0800_RLatLon0.03_PT036H.grib2 2026-05-09 06:16 1.3M
20260509T00Z_MSC_CAPS_DewPointDepression_IsbL-0850_RLatLon0.03_PT036H.grib2 2026-05-09 06:16 1.3M
20260509T00Z_MSC_CAPS_DewPointDepression_IsbL-0875_RLatLon0.03_PT036H.grib2 2026-05-09 06:16 1.3M
20260509T00Z_MSC_CAPS_DewPointDepression_IsbL-0900_RLatLon0.03_PT036H.grib2 2026-05-09 06:16 1.3M
20260509T00Z_MSC_CAPS_DewPointDepression_IsbL-0925_RLatLon0.03_PT036H.grib2 2026-05-09 06:16 1.3M
20260509T00Z_MSC_CAPS_DewPointDepression_IsbL-0950_RLatLon0.03_PT036H.grib2 2026-05-09 06:16 1.3M
20260509T00Z_MSC_CAPS_DewPointDepression_IsbL-0970_RLatLon0.03_PT036H.grib2 2026-05-09 06:16 1.3M
20260509T00Z_MSC_CAPS_DewPointDepression_IsbL-0985_RLatLon0.03_PT036H.grib2 2026-05-09 06:16 1.3M
20260509T00Z_MSC_CAPS_DewPointDepression_IsbL-1000_RLatLon0.03_PT036H.grib2 2026-05-09 06:16 1.3M
20260509T00Z_MSC_CAPS_DewPointDepression_IsbL-1015_RLatLon0.03_PT036H.grib2 2026-05-09 06:16 1.3M
20260509T00Z_MSC_CAPS_DewPoint_AGL-120m_RLatLon0.03_PT036H.grib2 2026-05-09 06:16 3.6M
20260509T00Z_MSC_CAPS_DewPoint_AGL-2m_RLatLon0.03_PT036H.grib2 2026-05-09 06:16 2.1M
20260509T00Z_MSC_CAPS_DewPoint_AGL-40m_RLatLon0.03_PT036H.grib2 2026-05-09 06:16 3.7M
20260509T00Z_MSC_CAPS_DewPoint_AGL-80m_RLatLon0.03_PT036H.grib2 2026-05-09 06:16 3.6M
20260509T00Z_MSC_CAPS_DownwardLongwaveRadiationFlux-Accum_Sfc_RLatLon0.03_PT036H.grib2 2026-05-09 06:16 2.5M
20260509T00Z_MSC_CAPS_DownwardShortwaveRadiationFlux-Accum_NTAtm_RLatLon0.03_PT036H.grib2 2026-05-09 06:16 475K
20260509T00Z_MSC_CAPS_DownwardShortwaveRadiationFlux-Accum_Sfc_RLatLon0.03_PT036H.grib2 2026-05-09 06:16 2.9M
20260509T00Z_MSC_CAPS_FreezingRain-Accum_Sfc_RLatLon0.03_PT036H.grib2 2026-05-09 06:16 1.0M
20260509T00Z_MSC_CAPS_GeopotentialHeight_IsbL-0050_RLatLon0.03_PT036H.grib2 2026-05-09 06:16 820K
20260509T00Z_MSC_CAPS_GeopotentialHeight_IsbL-0100_RLatLon0.03_PT036H.grib2 2026-05-09 06:16 817K
20260509T00Z_MSC_CAPS_GeopotentialHeight_IsbL-0150_RLatLon0.03_PT036H.grib2 2026-05-09 06:16 599K
20260509T00Z_MSC_CAPS_GeopotentialHeight_IsbL-0175_RLatLon0.03_PT036H.grib2 2026-05-09 06:16 709K
20260509T00Z_MSC_CAPS_GeopotentialHeight_IsbL-0200_RLatLon0.03_PT036H.grib2 2026-05-09 06:16 723K
20260509T00Z_MSC_CAPS_GeopotentialHeight_IsbL-0225_RLatLon0.03_PT036H.grib2 2026-05-09 06:16 738K
20260509T00Z_MSC_CAPS_GeopotentialHeight_IsbL-0250_RLatLon0.03_PT036H.grib2 2026-05-09 06:16 760K
20260509T00Z_MSC_CAPS_GeopotentialHeight_IsbL-0275_RLatLon0.03_PT036H.grib2 2026-05-09 06:16 771K
20260509T00Z_MSC_CAPS_GeopotentialHeight_IsbL-0300_RLatLon0.03_PT036H.grib2 2026-05-09 06:16 779K
20260509T00Z_MSC_CAPS_GeopotentialHeight_IsbL-0350_RLatLon0.03_PT036H.grib2 2026-05-09 06:16 777K
20260509T00Z_MSC_CAPS_GeopotentialHeight_IsbL-0400_RLatLon0.03_PT036H.grib2 2026-05-09 06:16 771K
20260509T00Z_MSC_CAPS_GeopotentialHeight_IsbL-0450_RLatLon0.03_PT036H.grib2 2026-05-09 06:16 762K
20260509T00Z_MSC_CAPS_GeopotentialHeight_IsbL-0500_RLatLon0.03_PT036H.grib2 2026-05-09 06:16 757K
20260509T00Z_MSC_CAPS_GeopotentialHeight_IsbL-0550_RLatLon0.03_PT036H.grib2 2026-05-09 06:16 749K
20260509T00Z_MSC_CAPS_GeopotentialHeight_IsbL-0600_RLatLon0.03_PT036H.grib2 2026-05-09 06:16 632K
20260509T00Z_MSC_CAPS_GeopotentialHeight_IsbL-0650_RLatLon0.03_PT036H.grib2 2026-05-09 06:16 630K
20260509T00Z_MSC_CAPS_GeopotentialHeight_IsbL-0700_RLatLon0.03_PT036H.grib2 2026-05-09 06:16 631K
20260509T00Z_MSC_CAPS_GeopotentialHeight_IsbL-0750_RLatLon0.03_PT036H.grib2 2026-05-09 06:16 810K
20260509T00Z_MSC_CAPS_GeopotentialHeight_IsbL-0800_RLatLon0.03_PT036H.grib2 2026-05-09 06:16 817K
20260509T00Z_MSC_CAPS_GeopotentialHeight_IsbL-0850_RLatLon0.03_PT036H.grib2 2026-05-09 06:16 828K
20260509T00Z_MSC_CAPS_GeopotentialHeight_IsbL-0875_RLatLon0.03_PT036H.grib2 2026-05-09 06:16 835K
20260509T00Z_MSC_CAPS_GeopotentialHeight_IsbL-0900_RLatLon0.03_PT036H.grib2 2026-05-09 06:16 842K
20260509T00Z_MSC_CAPS_GeopotentialHeight_IsbL-0925_RLatLon0.03_PT036H.grib2 2026-05-09 06:16 924K
20260509T00Z_MSC_CAPS_GeopotentialHeight_IsbL-0950_RLatLon0.03_PT036H.grib2 2026-05-09 06:16 934K
20260509T00Z_MSC_CAPS_GeopotentialHeight_IsbL-0970_RLatLon0.03_PT036H.grib2 2026-05-09 06:16 945K
20260509T00Z_MSC_CAPS_GeopotentialHeight_IsbL-0985_RLatLon0.03_PT036H.grib2 2026-05-09 06:16 953K
20260509T00Z_MSC_CAPS_GeopotentialHeight_IsbL-1000_RLatLon0.03_PT036H.grib2 2026-05-09 06:16 963K
20260509T00Z_MSC_CAPS_GeopotentialHeight_IsbL-1015_RLatLon0.03_PT036H.grib2 2026-05-09 06:16 1.0M
20260509T00Z_MSC_CAPS_GeopotentialHeight_Sfc_RLatLon0.03_PT036H.grib2 2026-05-09 06:16 1.0M
20260509T00Z_MSC_CAPS_IcePellets-Accum_Sfc_RLatLon0.03_PT036H.grib2 2026-05-09 06:16 47K
20260509T00Z_MSC_CAPS_LatentHeatNetFlux_Sfc_RLatLon0.03_PT036H.grib2 2026-05-09 06:16 1.9M
20260509T00Z_MSC_CAPS_LiftedIndex-MU-VT_IsbL-0500_RLatLon0.03_PT036H.grib2 2026-05-09 06:16 3.3M
20260509T00Z_MSC_CAPS_MixedLayerThickness_Sfc_RLatLon0.03_PT036H.nc 2026-05-09 06:12 16M
20260509T00Z_MSC_CAPS_NetLongwaveRadiationFlux-Accum_Sfc_RLatLon0.03_PT036H.grib2 2026-05-09 06:16 2.8M
20260509T00Z_MSC_CAPS_NetShortwaveRadiationFlux-Accum_Sfc_RLatLon0.03_PT036H.grib2 2026-05-09 06:16 2.8M
20260509T00Z_MSC_CAPS_PlanetaryBoundaryLayerHeight_Sfc_RLatLon0.03_PT036H.grib2 2026-05-09 06:16 3.0M
20260509T00Z_MSC_CAPS_Precip-Accum_Sfc_RLatLon0.03_PT036H.grib2 2026-05-09 06:16 4.9M
20260509T00Z_MSC_CAPS_PrecipRate_Sfc_RLatLon0.03_PT036H.grib2 2026-05-09 06:16 469K
20260509T00Z_MSC_CAPS_PrecipType-Instant_Sfc_RLatLon0.03_PT036H.grib2 2026-05-09 06:16 2.0M
20260509T00Z_MSC_CAPS_Pressure_MSL_RLatLon0.03_PT036H.grib2 2026-05-09 06:16 765K
20260509T00Z_MSC_CAPS_Pressure_Sfc_RLatLon0.03_PT036H.grib2 2026-05-09 06:16 1.2M
20260509T00Z_MSC_CAPS_RadiativeTemp_Sfc_RLatLon0.03_PT036H.grib2 2026-05-09 06:16 2.0M
20260509T00Z_MSC_CAPS_Rain-Accum_Sfc_RLatLon0.03_PT036H.grib2 2026-05-09 06:16 2.9M
20260509T00Z_MSC_CAPS_RelativeHumidity_AGL-120m_RLatLon0.03_PT036H.grib2 2026-05-09 06:16 2.7M
20260509T00Z_MSC_CAPS_RelativeHumidity_AGL-2m_RLatLon0.03_PT036H.grib2 2026-05-09 06:16 2.9M
20260509T00Z_MSC_CAPS_RelativeHumidity_AGL-40m_RLatLon0.03_PT036H.grib2 2026-05-09 06:16 2.8M
20260509T00Z_MSC_CAPS_RelativeHumidity_AGL-80m_RLatLon0.03_PT036H.grib2 2026-05-09 06:16 2.7M
20260509T00Z_MSC_CAPS_RelativeHumidity_IsbL-0050_RLatLon0.03_PT036H.grib2 2026-05-09 06:16 956K
20260509T00Z_MSC_CAPS_RelativeHumidity_IsbL-0100_RLatLon0.03_PT036H.grib2 2026-05-09 06:16 971K
20260509T00Z_MSC_CAPS_RelativeHumidity_IsbL-0150_RLatLon0.03_PT036H.grib2 2026-05-09 06:16 445K
20260509T00Z_MSC_CAPS_RelativeHumidity_IsbL-0175_RLatLon0.03_PT036H.grib2 2026-05-09 06:16 437K
20260509T00Z_MSC_CAPS_RelativeHumidity_IsbL-0200_RLatLon0.03_PT036H.grib2 2026-05-09 06:16 616K
20260509T00Z_MSC_CAPS_RelativeHumidity_IsbL-0225_RLatLon0.03_PT036H.grib2 2026-05-09 06:16 861K
20260509T00Z_MSC_CAPS_RelativeHumidity_IsbL-0250_RLatLon0.03_PT036H.grib2 2026-05-09 06:16 1.1M
20260509T00Z_MSC_CAPS_RelativeHumidity_IsbL-0275_RLatLon0.03_PT036H.grib2 2026-05-09 06:16 1.4M
20260509T00Z_MSC_CAPS_RelativeHumidity_IsbL-0300_RLatLon0.03_PT036H.grib2 2026-05-09 06:16 1.6M
20260509T00Z_MSC_CAPS_RelativeHumidity_IsbL-0350_RLatLon0.03_PT036H.grib2 2026-05-09 06:16 1.9M
20260509T00Z_MSC_CAPS_RelativeHumidity_IsbL-0400_RLatLon0.03_PT036H.grib2 2026-05-09 06:16 1.9M
20260509T00Z_MSC_CAPS_RelativeHumidity_IsbL-0450_RLatLon0.03_PT036H.grib2 2026-05-09 06:16 2.0M
20260509T00Z_MSC_CAPS_RelativeHumidity_IsbL-0500_RLatLon0.03_PT036H.grib2 2026-05-09 06:16 2.2M
20260509T00Z_MSC_CAPS_RelativeHumidity_IsbL-0550_RLatLon0.03_PT036H.grib2 2026-05-09 06:16 2.1M
20260509T00Z_MSC_CAPS_RelativeHumidity_IsbL-0600_RLatLon0.03_PT036H.grib2 2026-05-09 06:16 2.1M
20260509T00Z_MSC_CAPS_RelativeHumidity_IsbL-0650_RLatLon0.03_PT036H.grib2 2026-05-09 06:16 2.2M
20260509T00Z_MSC_CAPS_RelativeHumidity_IsbL-0700_RLatLon0.03_PT036H.grib2 2026-05-09 06:16 2.2M
20260509T00Z_MSC_CAPS_RelativeHumidity_IsbL-0750_RLatLon0.03_PT036H.grib2 2026-05-09 06:16 2.3M
20260509T00Z_MSC_CAPS_RelativeHumidity_IsbL-0800_RLatLon0.03_PT036H.grib2 2026-05-09 06:16 2.3M
20260509T00Z_MSC_CAPS_RelativeHumidity_IsbL-0850_RLatLon0.03_PT036H.grib2 2026-05-09 06:16 2.4M
20260509T00Z_MSC_CAPS_RelativeHumidity_IsbL-0875_RLatLon0.03_PT036H.grib2 2026-05-09 06:16 2.5M
20260509T00Z_MSC_CAPS_RelativeHumidity_IsbL-0900_RLatLon0.03_PT036H.grib2 2026-05-09 06:16 2.5M
20260509T00Z_MSC_CAPS_RelativeHumidity_IsbL-0925_RLatLon0.03_PT036H.grib2 2026-05-09 06:16 2.6M
20260509T00Z_MSC_CAPS_RelativeHumidity_IsbL-0950_RLatLon0.03_PT036H.grib2 2026-05-09 06:16 2.6M
20260509T00Z_MSC_CAPS_RelativeHumidity_IsbL-0970_RLatLon0.03_PT036H.grib2 2026-05-09 06:16 2.7M
20260509T00Z_MSC_CAPS_RelativeHumidity_IsbL-0985_RLatLon0.03_PT036H.grib2 2026-05-09 06:16 2.8M
20260509T00Z_MSC_CAPS_RelativeHumidity_IsbL-1000_RLatLon0.03_PT036H.grib2 2026-05-09 06:16 2.9M
20260509T00Z_MSC_CAPS_RelativeHumidity_IsbL-1015_RLatLon0.03_PT036H.grib2 2026-05-09 06:16 2.9M
20260509T00Z_MSC_CAPS_Runoff-Accum_Sfc_RLatLon0.03_PT036H.grib2 2026-05-09 06:16 265K
20260509T00Z_MSC_CAPS_SeaIceAreaFraction_Sfc_RLatLon0.03_PT036H.nc 2026-05-09 06:12 15M
20260509T00Z_MSC_CAPS_SeaIceCompressiveStrength_Sfc_RLatLon0.03_PT036H.nc 2026-05-09 06:12 15M
20260509T00Z_MSC_CAPS_SeaIceDivergence_Sfc_RLatLon0.03_PT036H.nc 2026-05-09 06:12 15M
20260509T00Z_MSC_CAPS_SeaIceInternalPressure_Sfc_RLatLon0.03_PT036H.nc 2026-05-09 06:12 15M
20260509T00Z_MSC_CAPS_SeaIceShear_Sfc_RLatLon0.03_PT036H.nc 2026-05-09 06:12 15M
20260509T00Z_MSC_CAPS_SeaIceSnowTemp_Sfc_RLatLon0.03_PT036H.nc 2026-05-09 06:12 14M
20260509T00Z_MSC_CAPS_SeaIceSnowVolume_Sfc_RLatLon0.03_PT036H.nc 2026-05-09 06:12 15M
20260509T00Z_MSC_CAPS_SeaIceVelocityX_Sfc_RLatLon0.03_PT036H.nc 2026-05-09 06:12 15M
20260509T00Z_MSC_CAPS_SeaIceVelocityY_Sfc_RLatLon0.03_PT036H.nc 2026-05-09 06:12 15M
20260509T00Z_MSC_CAPS_SeaIceVolume_Sfc_RLatLon0.03_PT036H.nc 2026-05-09 06:12 15M
20260509T00Z_MSC_CAPS_SeaSurfaceHeight_Sfc_RLatLon0.03_PT036H.nc 2026-05-09 06:12 16M
20260509T00Z_MSC_CAPS_SeaWaterSalinity_DBS-0.5m_RLatLon0.03_PT036H.nc 2026-05-09 06:12 16M
20260509T00Z_MSC_CAPS_SeaWaterSalinity_DBS-all_RLatLon0.03_PT036H.nc 2026-05-09 06:12 107M
20260509T00Z_MSC_CAPS_SeaWaterTemp_DBS-0.5m_RLatLon0.03_PT036H.nc 2026-05-09 06:12 15M
20260509T00Z_MSC_CAPS_SeaWaterTemp_DBS-all_RLatLon0.03_PT036H.nc 2026-05-09 06:12 88M
20260509T00Z_MSC_CAPS_SeaWaterVelocityX_DBS-0.5m_RLatLon0.03_PT036H.nc 2026-05-09 06:12 17M
20260509T00Z_MSC_CAPS_SeaWaterVelocityX_DBS-all_RLatLon0.03_PT036H.nc 2026-05-09 06:12 212M
20260509T00Z_MSC_CAPS_SeaWaterVelocityY_DBS-0.5m_RLatLon0.03_PT036H.nc 2026-05-09 06:12 17M
20260509T00Z_MSC_CAPS_SeaWaterVelocityY_DBS-all_RLatLon0.03_PT036H.nc 2026-05-09 06:12 217M
20260509T00Z_MSC_CAPS_SensibleHeatNetFlux_Sfc_RLatLon0.03_PT036H.grib2 2026-05-09 06:16 2.1M
20260509T00Z_MSC_CAPS_ShowalterIndex_IsbL-0500_RLatLon0.03_PT036H.grib2 2026-05-09 06:16 4.3M
20260509T00Z_MSC_CAPS_Snow-Accum_Sfc_RLatLon0.03_PT036H.grib2 2026-05-09 06:16 3.6M
20260509T00Z_MSC_CAPS_SnowDensity_Sfc_RLatLon0.03_PT036H.grib2 2026-05-09 06:16 1.3M
20260509T00Z_MSC_CAPS_SnowDepthWaterEquivalent_Sfc_RLatLon0.03_PT036H.grib2 2026-05-09 06:16 639K
20260509T00Z_MSC_CAPS_SnowDepth_Sfc_RLatLon0.03_PT036H.grib2 2026-05-09 06:16 1.1M
20260509T00Z_MSC_CAPS_SoilTemp_DBS-0to10cm_RLatLon0.03_PT036H.grib2 2026-05-09 06:16 1.6M
20260509T00Z_MSC_CAPS_SoilTemp_Sfc_RLatLon0.03_PT036H.grib2 2026-05-09 06:16 1.8M
20260509T00Z_MSC_CAPS_SoilVolumetricIceContent_Sfc_RLatLon0.03_PT036H.grib2 2026-05-09 06:16 1.3M
20260509T00Z_MSC_CAPS_SoilVolumetricWaterContent_DBS-0to10cm_RLatLon0.03_PT036H.grib2 2026-05-09 06:16 1.4M
20260509T00Z_MSC_CAPS_SoilVolumetricWaterContent_DBS-0to1cm_RLatLon0.03_PT036H.grib2 2026-05-09 06:16 1.8M
20260509T00Z_MSC_CAPS_SpecificHumidity_AGL-120m_RLatLon0.03_PT036H.grib2 2026-05-09 06:16 1.8M
20260509T00Z_MSC_CAPS_SpecificHumidity_AGL-2m_RLatLon0.03_PT036H.grib2 2026-05-09 06:16 2.1M
20260509T00Z_MSC_CAPS_SpecificHumidity_AGL-40m_RLatLon0.03_PT036H.grib2 2026-05-09 06:16 1.8M
20260509T00Z_MSC_CAPS_SpecificHumidity_AGL-80m_RLatLon0.03_PT036H.grib2 2026-05-09 06:16 1.8M
20260509T00Z_MSC_CAPS_SpecificHumidity_IsbL-0050_RLatLon0.03_PT036H.grib2 2026-05-09 06:16 915K
20260509T00Z_MSC_CAPS_SpecificHumidity_IsbL-0100_RLatLon0.03_PT036H.grib2 2026-05-09 06:16 1.1M
20260509T00Z_MSC_CAPS_SpecificHumidity_IsbL-0150_RLatLon0.03_PT036H.grib2 2026-05-09 06:16 1.0M
20260509T00Z_MSC_CAPS_SpecificHumidity_IsbL-0175_RLatLon0.03_PT036H.grib2 2026-05-09 06:16 968K
20260509T00Z_MSC_CAPS_SpecificHumidity_IsbL-0200_RLatLon0.03_PT036H.grib2 2026-05-09 06:16 882K
20260509T00Z_MSC_CAPS_SpecificHumidity_IsbL-0225_RLatLon0.03_PT036H.grib2 2026-05-09 06:16 1.1M
20260509T00Z_MSC_CAPS_SpecificHumidity_IsbL-0250_RLatLon0.03_PT036H.grib2 2026-05-09 06:16 1.1M
20260509T00Z_MSC_CAPS_SpecificHumidity_IsbL-0275_RLatLon0.03_PT036H.grib2 2026-05-09 06:16 1.1M
20260509T00Z_MSC_CAPS_SpecificHumidity_IsbL-0300_RLatLon0.03_PT036H.grib2 2026-05-09 06:16 1.0M
20260509T00Z_MSC_CAPS_SpecificHumidity_IsbL-0350_RLatLon0.03_PT036H.grib2 2026-05-09 06:16 1.0M
20260509T00Z_MSC_CAPS_SpecificHumidity_IsbL-0400_RLatLon0.03_PT036H.grib2 2026-05-09 06:16 1.2M
20260509T00Z_MSC_CAPS_SpecificHumidity_IsbL-0450_RLatLon0.03_PT036H.grib2 2026-05-09 06:16 1.2M
20260509T00Z_MSC_CAPS_SpecificHumidity_IsbL-0500_RLatLon0.03_PT036H.grib2 2026-05-09 06:16 1.1M
20260509T00Z_MSC_CAPS_SpecificHumidity_IsbL-0550_RLatLon0.03_PT036H.grib2 2026-05-09 06:16 1.3M
20260509T00Z_MSC_CAPS_SpecificHumidity_IsbL-0600_RLatLon0.03_PT036H.grib2 2026-05-09 06:16 1.4M
20260509T00Z_MSC_CAPS_SpecificHumidity_IsbL-0650_RLatLon0.03_PT036H.grib2 2026-05-09 06:16 1.6M
20260509T00Z_MSC_CAPS_SpecificHumidity_IsbL-0700_RLatLon0.03_PT036H.grib2 2026-05-09 06:16 1.3M
20260509T00Z_MSC_CAPS_SpecificHumidity_IsbL-0750_RLatLon0.03_PT036H.grib2 2026-05-09 06:16 1.4M
20260509T00Z_MSC_CAPS_SpecificHumidity_IsbL-0800_RLatLon0.03_PT036H.grib2 2026-05-09 06:16 1.6M
20260509T00Z_MSC_CAPS_SpecificHumidity_IsbL-0850_RLatLon0.03_PT036H.grib2 2026-05-09 06:16 1.7M
20260509T00Z_MSC_CAPS_SpecificHumidity_IsbL-0875_RLatLon0.03_PT036H.grib2 2026-05-09 06:16 1.8M
20260509T00Z_MSC_CAPS_SpecificHumidity_IsbL-0900_RLatLon0.03_PT036H.grib2 2026-05-09 06:16 1.8M
20260509T00Z_MSC_CAPS_SpecificHumidity_IsbL-0925_RLatLon0.03_PT036H.grib2 2026-05-09 06:16 1.9M
20260509T00Z_MSC_CAPS_SpecificHumidity_IsbL-0950_RLatLon0.03_PT036H.grib2 2026-05-09 06:16 1.9M
20260509T00Z_MSC_CAPS_SpecificHumidity_IsbL-0970_RLatLon0.03_PT036H.grib2 2026-05-09 06:16 2.0M
20260509T00Z_MSC_CAPS_SpecificHumidity_IsbL-0985_RLatLon0.03_PT036H.grib2 2026-05-09 06:16 2.0M
20260509T00Z_MSC_CAPS_SpecificHumidity_IsbL-1000_RLatLon0.03_PT036H.grib2 2026-05-09 06:16 2.1M
20260509T00Z_MSC_CAPS_SpecificHumidity_IsbL-1015_RLatLon0.03_PT036H.grib2 2026-05-09 06:16 2.1M
20260509T00Z_MSC_CAPS_SpecificHumidity_Sfc_RLatLon0.03_PT036H.grib2 2026-05-09 06:16 2.0M
20260509T00Z_MSC_CAPS_StormRelativeHelicity_Sfc_RLatLon0.03_PT036H.grib2 2026-05-09 06:16 3.2M
20260509T00Z_MSC_CAPS_Thickness_IsbL-1000to0500_RLatLon0.03_PT036H.grib2 2026-05-09 06:16 412K
20260509T00Z_MSC_CAPS_TotalCloudCover_Sfc_RLatLon0.03_PT036H.grib2 2026-05-09 06:16 3.6M
20260509T00Z_MSC_CAPS_TurboclineDepth_Sfc_RLatLon0.03_PT036H.nc 2026-05-09 06:12 16M
20260509T00Z_MSC_CAPS_UpwardLongwaveRadiationFlux_NTAtm_RLatLon0.03_PT036H.grib2 2026-05-09 06:16 2.9M
20260509T00Z_MSC_CAPS_UpwardShortwaveRadiationFlux_NTAtm_RLatLon0.03_PT036H.grib2 2026-05-09 06:16 2.2M
20260509T00Z_MSC_CAPS_VerticalVelocity_IsbL-0250_RLatLon0.03_PT036H.grib2 2026-05-09 06:16 1.1M
20260509T00Z_MSC_CAPS_VerticalVelocity_IsbL-0500_RLatLon0.03_PT036H.grib2 2026-05-09 06:16 1.1M
20260509T00Z_MSC_CAPS_VerticalVelocity_IsbL-0700_RLatLon0.03_PT036H.grib2 2026-05-09 06:16 1.1M
20260509T00Z_MSC_CAPS_VerticalVelocity_IsbL-0850_RLatLon0.03_PT036H.grib2 2026-05-09 06:16 1.4M
20260509T00Z_MSC_CAPS_VerticalVelocity_IsbL-1000_RLatLon0.03_PT036H.grib2 2026-05-09 06:16 1.3M
20260509T00Z_MSC_CAPS_WindDir_AGL-10m_RLatLon0.03_PT036H.grib2 2026-05-09 06:16 2.3M
20260509T00Z_MSC_CAPS_WindDir_AGL-120m_RLatLon0.03_PT036H.grib2 2026-05-09 06:16 1.2M
20260509T00Z_MSC_CAPS_WindDir_AGL-40m_RLatLon0.03_PT036H.grib2 2026-05-09 06:16 1.3M
20260509T00Z_MSC_CAPS_WindDir_AGL-80m_RLatLon0.03_PT036H.grib2 2026-05-09 06:16 1.3M
20260509T00Z_MSC_CAPS_WindDir_IsbL-0050_RLatLon0.03_PT036H.grib2 2026-05-09 06:16 1.0M
20260509T00Z_MSC_CAPS_WindDir_IsbL-0100_RLatLon0.03_PT036H.grib2 2026-05-09 06:16 1.0M
20260509T00Z_MSC_CAPS_WindDir_IsbL-0150_RLatLon0.03_PT036H.grib2 2026-05-09 06:16 1.1M
20260509T00Z_MSC_CAPS_WindDir_IsbL-0175_RLatLon0.03_PT036H.grib2 2026-05-09 06:16 1.1M
20260509T00Z_MSC_CAPS_WindDir_IsbL-0200_RLatLon0.03_PT036H.grib2 2026-05-09 06:16 1.1M
20260509T00Z_MSC_CAPS_WindDir_IsbL-0225_RLatLon0.03_PT036H.grib2 2026-05-09 06:16 1.2M
20260509T00Z_MSC_CAPS_WindDir_IsbL-0250_RLatLon0.03_PT036H.grib2 2026-05-09 06:16 1.2M
20260509T00Z_MSC_CAPS_WindDir_IsbL-0275_RLatLon0.03_PT036H.grib2 2026-05-09 06:16 1.1M
20260509T00Z_MSC_CAPS_WindDir_IsbL-0300_RLatLon0.03_PT036H.grib2 2026-05-09 06:16 1.1M
20260509T00Z_MSC_CAPS_WindDir_IsbL-0350_RLatLon0.03_PT036H.grib2 2026-05-09 06:16 1.1M
20260509T00Z_MSC_CAPS_WindDir_IsbL-0400_RLatLon0.03_PT036H.grib2 2026-05-09 06:16 1.1M
20260509T00Z_MSC_CAPS_WindDir_IsbL-0450_RLatLon0.03_PT036H.grib2 2026-05-09 06:16 1.2M
20260509T00Z_MSC_CAPS_WindDir_IsbL-0500_RLatLon0.03_PT036H.grib2 2026-05-09 06:16 1.2M
20260509T00Z_MSC_CAPS_WindDir_IsbL-0550_RLatLon0.03_PT036H.grib2 2026-05-09 06:16 1.2M
20260509T00Z_MSC_CAPS_WindDir_IsbL-0600_RLatLon0.03_PT036H.grib2 2026-05-09 06:16 1.2M
20260509T00Z_MSC_CAPS_WindDir_IsbL-0650_RLatLon0.03_PT036H.grib2 2026-05-09 06:16 1.3M
20260509T00Z_MSC_CAPS_WindDir_IsbL-0700_RLatLon0.03_PT036H.grib2 2026-05-09 06:16 1.4M
20260509T00Z_MSC_CAPS_WindDir_IsbL-0750_RLatLon0.03_PT036H.grib2 2026-05-09 06:16 1.5M
20260509T00Z_MSC_CAPS_WindDir_IsbL-0800_RLatLon0.03_PT036H.grib2 2026-05-09 06:16 1.6M
20260509T00Z_MSC_CAPS_WindDir_IsbL-0850_RLatLon0.03_PT036H.grib2 2026-05-09 06:16 1.7M
20260509T00Z_MSC_CAPS_WindDir_IsbL-0875_RLatLon0.03_PT036H.grib2 2026-05-09 06:16 1.8M
20260509T00Z_MSC_CAPS_WindDir_IsbL-0900_RLatLon0.03_PT036H.grib2 2026-05-09 06:16 1.9M
20260509T00Z_MSC_CAPS_WindDir_IsbL-0925_RLatLon0.03_PT036H.grib2 2026-05-09 06:16 1.9M
20260509T00Z_MSC_CAPS_WindDir_IsbL-0950_RLatLon0.03_PT036H.grib2 2026-05-09 06:16 2.0M
20260509T00Z_MSC_CAPS_WindDir_IsbL-0970_RLatLon0.03_PT036H.grib2 2026-05-09 06:16 2.1M
20260509T00Z_MSC_CAPS_WindDir_IsbL-0985_RLatLon0.03_PT036H.grib2 2026-05-09 06:16 2.2M
20260509T00Z_MSC_CAPS_WindDir_IsbL-1000_RLatLon0.03_PT036H.grib2 2026-05-09 06:16 2.3M
20260509T00Z_MSC_CAPS_WindDir_IsbL-1015_RLatLon0.03_PT036H.grib2 2026-05-09 06:16 2.3M
20260509T00Z_MSC_CAPS_WindGust-Max_AGL-10m_RLatLon0.03_PT036H.grib2 2026-05-09 06:16 2.6M
20260509T00Z_MSC_CAPS_WindGust-Min_AGL-10m_RLatLon0.03_PT036H.grib2 2026-05-09 06:16 2.4M
20260509T00Z_MSC_CAPS_WindGust_AGL-10m_RLatLon0.03_PT036H.grib2 2026-05-09 06:16 2.6M
20260509T00Z_MSC_CAPS_WindSpeed_AGL-10m_RLatLon0.03_PT036H.grib2 2026-05-09 06:16 2.1M
20260509T00Z_MSC_CAPS_WindSpeed_AGL-120m_RLatLon0.03_PT036H.grib2 2026-05-09 06:16 1.5M
20260509T00Z_MSC_CAPS_WindSpeed_AGL-40m_RLatLon0.03_PT036H.grib2 2026-05-09 06:16 1.6M
20260509T00Z_MSC_CAPS_WindSpeed_AGL-80m_RLatLon0.03_PT036H.grib2 2026-05-09 06:16 1.5M
20260509T00Z_MSC_CAPS_WindSpeed_IsbL-0050_RLatLon0.03_PT036H.grib2 2026-05-09 06:16 1.1M
20260509T00Z_MSC_CAPS_WindSpeed_IsbL-0100_RLatLon0.03_PT036H.grib2 2026-05-09 06:16 1.1M
20260509T00Z_MSC_CAPS_WindSpeed_IsbL-0150_RLatLon0.03_PT036H.grib2 2026-05-09 06:16 1.0M
20260509T00Z_MSC_CAPS_WindSpeed_IsbL-0175_RLatLon0.03_PT036H.grib2 2026-05-09 06:16 1.1M
20260509T00Z_MSC_CAPS_WindSpeed_IsbL-0200_RLatLon0.03_PT036H.grib2 2026-05-09 06:16 882K
20260509T00Z_MSC_CAPS_WindSpeed_IsbL-0225_RLatLon0.03_PT036H.grib2 2026-05-09 06:16 953K
20260509T00Z_MSC_CAPS_WindSpeed_IsbL-0250_RLatLon0.03_PT036H.grib2 2026-05-09 06:16 1.0M
20260509T00Z_MSC_CAPS_WindSpeed_IsbL-0275_RLatLon0.03_PT036H.grib2 2026-05-09 06:16 1.0M
20260509T00Z_MSC_CAPS_WindSpeed_IsbL-0300_RLatLon0.03_PT036H.grib2 2026-05-09 06:16 1.0M
20260509T00Z_MSC_CAPS_WindSpeed_IsbL-0350_RLatLon0.03_PT036H.grib2 2026-05-09 06:16 1.0M
20260509T00Z_MSC_CAPS_WindSpeed_IsbL-0400_RLatLon0.03_PT036H.grib2 2026-05-09 06:16 1.0M
20260509T00Z_MSC_CAPS_WindSpeed_IsbL-0450_RLatLon0.03_PT036H.grib2 2026-05-09 06:16 1.3M
20260509T00Z_MSC_CAPS_WindSpeed_IsbL-0500_RLatLon0.03_PT036H.grib2 2026-05-09 06:16 1.3M
20260509T00Z_MSC_CAPS_WindSpeed_IsbL-0550_RLatLon0.03_PT036H.grib2 2026-05-09 06:16 1.4M
20260509T00Z_MSC_CAPS_WindSpeed_IsbL-0600_RLatLon0.03_PT036H.grib2 2026-05-09 06:16 1.4M
20260509T00Z_MSC_CAPS_WindSpeed_IsbL-0650_RLatLon0.03_PT036H.grib2 2026-05-09 06:16 1.4M
20260509T00Z_MSC_CAPS_WindSpeed_IsbL-0700_RLatLon0.03_PT036H.grib2 2026-05-09 06:16 1.4M
20260509T00Z_MSC_CAPS_WindSpeed_IsbL-0750_RLatLon0.03_PT036H.grib2 2026-05-09 06:16 1.5M
20260509T00Z_MSC_CAPS_WindSpeed_IsbL-0800_RLatLon0.03_PT036H.grib2 2026-05-09 06:16 1.7M
20260509T00Z_MSC_CAPS_WindSpeed_IsbL-0850_RLatLon0.03_PT036H.grib2 2026-05-09 06:16 1.7M
20260509T00Z_MSC_CAPS_WindSpeed_IsbL-0875_RLatLon0.03_PT036H.grib2 2026-05-09 06:16 1.8M
20260509T00Z_MSC_CAPS_WindSpeed_IsbL-0900_RLatLon0.03_PT036H.grib2 2026-05-09 06:16 1.8M
20260509T00Z_MSC_CAPS_WindSpeed_IsbL-0925_RLatLon0.03_PT036H.grib2 2026-05-09 06:16 1.9M
20260509T00Z_MSC_CAPS_WindSpeed_IsbL-0950_RLatLon0.03_PT036H.grib2 2026-05-09 06:16 1.9M
20260509T00Z_MSC_CAPS_WindSpeed_IsbL-0970_RLatLon0.03_PT036H.grib2 2026-05-09 06:16 2.0M
20260509T00Z_MSC_CAPS_WindSpeed_IsbL-0985_RLatLon0.03_PT036H.grib2 2026-05-09 06:16 2.0M
20260509T00Z_MSC_CAPS_WindSpeed_IsbL-1000_RLatLon0.03_PT036H.grib2 2026-05-09 06:16 2.1M
20260509T00Z_MSC_CAPS_WindSpeed_IsbL-1015_RLatLon0.03_PT036H.grib2 2026-05-09 06:16 2.1M
20260509T00Z_MSC_CAPS_WindU_AGL-10m_RLatLon0.03_PT036H.grib2 2026-05-09 06:16 2.0M
20260509T00Z_MSC_CAPS_WindU_AGL-120m_RLatLon0.03_PT036H.grib2 2026-05-09 06:16 1.2M
20260509T00Z_MSC_CAPS_WindU_AGL-40m_RLatLon0.03_PT036H.grib2 2026-05-09 06:16 1.1M
20260509T00Z_MSC_CAPS_WindU_AGL-80m_RLatLon0.03_PT036H.grib2 2026-05-09 06:16 1.2M
20260509T00Z_MSC_CAPS_WindU_IsbL-0050_RLatLon0.03_PT036H.grib2 2026-05-09 06:16 763K
20260509T00Z_MSC_CAPS_WindU_IsbL-0100_RLatLon0.03_PT036H.grib2 2026-05-09 06:16 787K
20260509T00Z_MSC_CAPS_WindU_IsbL-0150_RLatLon0.03_PT036H.grib2 2026-05-09 06:16 907K
20260509T00Z_MSC_CAPS_WindU_IsbL-0175_RLatLon0.03_PT036H.grib2 2026-05-09 06:16 720K
20260509T00Z_MSC_CAPS_WindU_IsbL-0200_RLatLon0.03_PT036H.grib2 2026-05-09 06:16 868K
20260509T00Z_MSC_CAPS_WindU_IsbL-0225_RLatLon0.03_PT036H.grib2 2026-05-09 06:16 684K
20260509T00Z_MSC_CAPS_WindU_IsbL-0250_RLatLon0.03_PT036H.grib2 2026-05-09 06:16 707K
20260509T00Z_MSC_CAPS_WindU_IsbL-0275_RLatLon0.03_PT036H.grib2 2026-05-09 06:16 716K
20260509T00Z_MSC_CAPS_WindU_IsbL-0300_RLatLon0.03_PT036H.grib2 2026-05-09 06:16 722K
20260509T00Z_MSC_CAPS_WindU_IsbL-0350_RLatLon0.03_PT036H.grib2 2026-05-09 06:16 731K
20260509T00Z_MSC_CAPS_WindU_IsbL-0400_RLatLon0.03_PT036H.grib2 2026-05-09 06:16 951K
20260509T00Z_MSC_CAPS_WindU_IsbL-0450_RLatLon0.03_PT036H.grib2 2026-05-09 06:16 972K
20260509T00Z_MSC_CAPS_WindU_IsbL-0500_RLatLon0.03_PT036H.grib2 2026-05-09 06:16 1.0M
20260509T00Z_MSC_CAPS_WindU_IsbL-0550_RLatLon0.03_PT036H.grib2 2026-05-09 06:16 916K
20260509T00Z_MSC_CAPS_WindU_IsbL-0600_RLatLon0.03_PT036H.grib2 2026-05-09 06:16 943K
20260509T00Z_MSC_CAPS_WindU_IsbL-0650_RLatLon0.03_PT036H.grib2 2026-05-09 06:16 1.2M
20260509T00Z_MSC_CAPS_WindU_IsbL-0700_RLatLon0.03_PT036H.grib2 2026-05-09 06:16 1.3M
20260509T00Z_MSC_CAPS_WindU_IsbL-0750_RLatLon0.03_PT036H.grib2 2026-05-09 06:16 1.4M
20260509T00Z_MSC_CAPS_WindU_IsbL-0800_RLatLon0.03_PT036H.grib2 2026-05-09 06:16 1.4M
20260509T00Z_MSC_CAPS_WindU_IsbL-0850_RLatLon0.03_PT036H.grib2 2026-05-09 06:16 1.5M
20260509T00Z_MSC_CAPS_WindU_IsbL-0875_RLatLon0.03_PT036H.grib2 2026-05-09 06:16 1.6M
20260509T00Z_MSC_CAPS_WindU_IsbL-0900_RLatLon0.03_PT036H.grib2 2026-05-09 06:16 1.8M
20260509T00Z_MSC_CAPS_WindU_IsbL-0925_RLatLon0.03_PT036H.grib2 2026-05-09 06:16 1.7M
20260509T00Z_MSC_CAPS_WindU_IsbL-0950_RLatLon0.03_PT036H.grib2 2026-05-09 06:16 1.9M
20260509T00Z_MSC_CAPS_WindU_IsbL-0970_RLatLon0.03_PT036H.grib2 2026-05-09 06:16 1.9M
20260509T00Z_MSC_CAPS_WindU_IsbL-0985_RLatLon0.03_PT036H.grib2 2026-05-09 06:16 1.9M
20260509T00Z_MSC_CAPS_WindU_IsbL-1000_RLatLon0.03_PT036H.grib2 2026-05-09 06:16 1.9M
20260509T00Z_MSC_CAPS_WindU_IsbL-1015_RLatLon0.03_PT036H.grib2 2026-05-09 06:16 2.0M
20260509T00Z_MSC_CAPS_WindV_AGL-10m_RLatLon0.03_PT036H.grib2 2026-05-09 06:16 2.0M
20260509T00Z_MSC_CAPS_WindV_AGL-120m_RLatLon0.03_PT036H.grib2 2026-05-09 06:16 1.2M
20260509T00Z_MSC_CAPS_WindV_AGL-40m_RLatLon0.03_PT036H.grib2 2026-05-09 06:16 1.2M
20260509T00Z_MSC_CAPS_WindV_AGL-80m_RLatLon0.03_PT036H.grib2 2026-05-09 06:16 1.2M
20260509T00Z_MSC_CAPS_WindV_IsbL-0050_RLatLon0.03_PT036H.grib2 2026-05-09 06:16 766K
20260509T00Z_MSC_CAPS_WindV_IsbL-0100_RLatLon0.03_PT036H.grib2 2026-05-09 06:16 786K
20260509T00Z_MSC_CAPS_WindV_IsbL-0150_RLatLon0.03_PT036H.grib2 2026-05-09 06:16 1.0M
20260509T00Z_MSC_CAPS_WindV_IsbL-0175_RLatLon0.03_PT036H.grib2 2026-05-09 06:16 931K
20260509T00Z_MSC_CAPS_WindV_IsbL-0200_RLatLon0.03_PT036H.grib2 2026-05-09 06:16 739K
20260509T00Z_MSC_CAPS_WindV_IsbL-0225_RLatLon0.03_PT036H.grib2 2026-05-09 06:16 891K
20260509T00Z_MSC_CAPS_WindV_IsbL-0250_RLatLon0.03_PT036H.grib2 2026-05-09 06:16 915K
20260509T00Z_MSC_CAPS_WindV_IsbL-0275_RLatLon0.03_PT036H.grib2 2026-05-09 06:16 926K
20260509T00Z_MSC_CAPS_WindV_IsbL-0300_RLatLon0.03_PT036H.grib2 2026-05-09 06:16 936K
20260509T00Z_MSC_CAPS_WindV_IsbL-0350_RLatLon0.03_PT036H.grib2 2026-05-09 06:16 944K
20260509T00Z_MSC_CAPS_WindV_IsbL-0400_RLatLon0.03_PT036H.grib2 2026-05-09 06:16 951K
20260509T00Z_MSC_CAPS_WindV_IsbL-0450_RLatLon0.03_PT036H.grib2 2026-05-09 06:16 972K
20260509T00Z_MSC_CAPS_WindV_IsbL-0500_RLatLon0.03_PT036H.grib2 2026-05-09 06:16 886K
20260509T00Z_MSC_CAPS_WindV_IsbL-0550_RLatLon0.03_PT036H.grib2 2026-05-09 06:16 917K
20260509T00Z_MSC_CAPS_WindV_IsbL-0600_RLatLon0.03_PT036H.grib2 2026-05-09 06:16 1.2M
20260509T00Z_MSC_CAPS_WindV_IsbL-0650_RLatLon0.03_PT036H.grib2 2026-05-09 06:16 1.2M
20260509T00Z_MSC_CAPS_WindV_IsbL-0700_RLatLon0.03_PT036H.grib2 2026-05-09 06:16 1.3M
20260509T00Z_MSC_CAPS_WindV_IsbL-0750_RLatLon0.03_PT036H.grib2 2026-05-09 06:16 1.3M
20260509T00Z_MSC_CAPS_WindV_IsbL-0800_RLatLon0.03_PT036H.grib2 2026-05-09 06:16 1.4M
20260509T00Z_MSC_CAPS_WindV_IsbL-0850_RLatLon0.03_PT036H.grib2 2026-05-09 06:16 1.5M
20260509T00Z_MSC_CAPS_WindV_IsbL-0875_RLatLon0.03_PT036H.grib2 2026-05-09 06:16 1.6M
20260509T00Z_MSC_CAPS_WindV_IsbL-0900_RLatLon0.03_PT036H.grib2 2026-05-09 06:16 1.6M
20260509T00Z_MSC_CAPS_WindV_IsbL-0925_RLatLon0.03_PT036H.grib2 2026-05-09 06:16 1.7M
20260509T00Z_MSC_CAPS_WindV_IsbL-0950_RLatLon0.03_PT036H.grib2 2026-05-09 06:16 1.7M
20260509T00Z_MSC_CAPS_WindV_IsbL-0970_RLatLon0.03_PT036H.grib2 2026-05-09 06:16 1.9M
20260509T00Z_MSC_CAPS_WindV_IsbL-0985_RLatLon0.03_PT036H.grib2 2026-05-09 06:16 1.9M
20260509T00Z_MSC_CAPS_WindV_IsbL-1000_RLatLon0.03_PT036H.grib2 2026-05-09 06:16 2.0M
20260509T00Z_MSC_CAPS_WindV_IsbL-1015_RLatLon0.03_PT036H.grib2 2026-05-09 06:16 2.0M